This is the latest recevied weather packets stored in our database for station/object SQ9MHX-13. If no packets are shown the sender has not sent any weather packets the latest 10 day(s).
| Time | Temp. | Humidity | Pressure | Rain* | Wind** | Luminosity | Snow |
|---|---|---|---|---|---|---|---|
| 1777509167 | -2.22° C | 81% | 1005.1 hPa | - | 0 m/s | - | - |
| 1777508870 | -2.22° C | 81% | 1005.1 hPa | - | 0 m/s | - | - |
| 1777508572 | -2.22° C | 81% | 1005.3 hPa | - | 0 m/s | - | - |
| 1777508274 | -2.22° C | 81% | 1005.4 hPa | - | 0 m/s | - | - |
| 1777507976 | -2.22° C | 81% | 1005.6 hPa | - | 0 m/s | - | - |
| 1777507679 | -2.22° C | 81% | 1005.3 hPa | - | 0 m/s | - | - |
| 1777507381 | -2.22° C | 81% | 1005.6 hPa | - | 0 m/s | - | - |
| 1777507083 | -2.22° C | 82% | 1006 hPa | - | 0 m/s | - | - |
| 1777506786 | -2.22° C | 83% | 1006 hPa | - | 0 m/s | - | - |
| 1777506488 | -2.22° C | 80% | 1005.3 hPa | - | 0 m/s | - | - |
| 1777506190 | -2.22° C | 81% | 1005.5 hPa | - | 0 m/s | - | - |
| 1777505595 | -1.11° C | 77% | 1004 hPa | - | 0 m/s | - | - |
| 1777505297 | -1.11° C | 74% | 1003.8 hPa | - | 0 m/s | - | - |
| 1777504999 | -1.11° C | 76% | 1003.8 hPa | - | 0 m/s | - | - |
| 1777504701 | -1.11° C | 78% | 1003.9 hPa | - | 0 m/s | - | - |
| 1777504403 | -1.11° C | 76% | 1003.3 hPa | - | 0 m/s | - | - |
| 1777504106 | 0° C | 74% | 1002.9 hPa | - | 0 m/s | - | - |
| 1777503808 | 0° C | 73% | 1002.9 hPa | - | 0 m/s | - | - |
| 1777503510 | -1.11° C | 73% | 1003.1 hPa | - | 0 m/s | - | - |
| 1777502914 | -1.11° C | 70% | 1003.8 hPa | - | 0 m/s | - | - |
| 1777502617 | -1.11° C | 73% | 1004 hPa | - | 0 m/s | - | - |
| 1777502342 | -1.11° C | 74% | 1004 hPa | - | 0 m/s | - | - |
| 1777502319 | -1.11° C | 74% | 1004 hPa | - | 0 m/s | - | - |
| 1777502021 | -1.11° C | 74% | 1003.9 hPa | - | 0 m/s | - | - |
| 1777501724 | 0° C | 74% | 1002.8 hPa | - | 0 m/s | - | - |
* Rain since midnight (hover to see other rain measurements)
** Current wind speed in m/s (hover to see current wind gust speed)